Location: Newark
(52.5694°N, 1.3190°W)
Time: 02:34:29
(UTC+00:00)

N. Korean satellite - Pass Details

Date: 29 January 2020
Orbit: 456 x 505 km, 97.2° (Epoch: 26 February)

Event Time Altitude Azimuth Distance (km) Brightness Sun altitude
Rises 05:32:22 0° 19° (NNE) 2,550 10.4 -21.2°
Reaches altitude 10° 05:34:32 10° 28° (NNE) 1,674 9.6 -20.8°
Maximum altitude 05:37:54 37° 97° (E) 778 8.1 -20.3°
Drops below altitude 10° 05:41:18 10° 167° (SSE) 1,685 9.5 -19.8°
Sets 05:43:29 0° 175° (S) 2,570 10.4 -19.5°
